Location: Praha
(50.0830°N, 14.4670°E)
Time: 16:32:38
(UTC+01:00)

ISS - Pass Details

Date: 25 November 2018
Orbit: 401 x 408 km, 51.6° (Epoch: 20 November)

Event Time Altitude Azimuth Distance (km) Brightness Sun altitude
Rises 17:39:35 0° 198° (SSW) 2,304 0.5 -14.3°
Reaches altitude 10° 17:42:22 10° 172° (S) 1,449 -0.9 -14.8°
Maximum altitude 17:44:09 14° 138° (SE) 1,233 -1.7 -15.0°
Enters shadow 17:44:14 14° 137° (SE) 1,234 -1.7 -15.1°
